Regional Weather Roundup
Issued by NWS Midland/Odessa, TX

Home | Current Version | Previous Version | Text Only | Print | Product List | Glossary On
Versions: 1 2 3 4 5 6 7 8 9 10 11 12 13 14 15 16 17 18 19 20 21 22 23 24 25 26 27 28 29 30 31 32 33 34 35 36 37 38 39 40 41 42 43 44 45 46 47 48 49 50
000
ASUS44 KMAF 251701
RWRMAF
MIDLAND AREA WEATHER ROUNDUP
NATIONAL WEATHER SERVICE MIDLAND TX
1100 AM CST SAT FEB 25 2017

...IN SOUTHWEST TEXAS AND SOUTHEAST NEW MEXICO...

CITY           SKY/WX    TMP DP  RH WIND       PRES   REMARKS
ALPINE         SUNNY     58   5  12 CALM      30.18S
ANDREWS        FAIR      41  20  43 SE9       30.19S WCI  35
ARTESIA        SUNNY     41  19  42 SE14G20   30.14F WCI  33
BIG SPRING     SUNNY     42  19  39 E7G16     30.23F WCI  38
CARLSBAD       SUNNY     42  23  46 S12       30.14F WCI  36
DRYDEN           N/A     55  30  38 SE9G20    30.15F
FORT STOCKTON  SUNNY     52  26  36 VRB6      30.15F
GUAD PASS      SUNNY     46  12  25 SW10        N/A
HOBBS          SUNNY     39  18  41 SE8       30.18F WCI  34
MARFA          SUNNY     56   5  13 W7        30.15S
MIDLAND AIRPK  SUNNY     44  21  41 E12G17    30.20F WCI  38
MIDLAND INTL   SUNNY     43  21  41 E13       30.19F WCI  36
ODESSA         SUNNY     43  20  39 SE12      30.19F WCI  37
PECOS          SUNNY     46  25  44 E9        30.18F
PRESIDIO       FAIR      58   8  13 CALM      30.13F
SEMINOLE       SUNNY     41  20  43 SE10G17   30.19F WCI  35
SNYDER         SUNNY     39  19  44 E10       30.23F WCI  32
WINK           SUNNY     46  23  40 SE9       30.16F
$$
...OTHER STATIONS IN TEXAS...

CITY           SKY/WX    TMP DP  RH WIND       PRES   REMARKS
ABILENE        SUNNY     42  21  43 E8        30.25F WCI  37
AMARILLO       SUNNY     36  20  52 S15G21    30.14F WCI  27
AUSTIN         SUNNY     53  26  35 N18G26    30.22F
BROWNSVILLE    MOSUNNY   75  57  53 NE16G23   30.09S
CORPUS CHRISTI SUNNY     64  40  41 NE17      30.15R
DALLAS FTW     SUNNY     45  24  43 N9        30.28R
DEL RIO        SUNNY     58  32  37 SE6       30.18S
EL PASO        SUNNY     54   6  14 SW9       30.10F
HOUSTON INT    SUNNY     60  30  32 N13G22    30.17S
LUBBOCK        MOSUNNY   38  19  46 S9G17     30.18F WCI  31
SAN ANGELO     SUNNY     45  25  45 E12       30.23F WCI  39
SAN ANTONIO    MOSUNNY   57  30  35 NE12      30.20S
WACO           SUNNY     48  26  42 N10       30.27R
WICHITA FALLS  NOT AVBL
$$
...OTHER LOCATIONS IN NEW MEXICO...

CITY           SKY/WX    TMP DP  RH WIND       PRES   REMARKS
ALAMAGORDO     SUNNY     48  10  21 S10       30.10F
ALBUQUERQUE    SUNNY     36   3  25 CALM      30.08F
CANNON AFB     NOT AVBL
CLOVIS         SUNNY     36  18  48 S15G21    30.12F WCI  26
HOLLOMAN AFB   SUNNY     49  10  20 S7        30.13F
ROSWELL        SUNNY     42  17  36 SE13        N/A  WCI  35
RUIDOSO        SUNNY     37   5  25 CALM      30.08F
SANTA FE       SUNNY     34   1  24 SW10G18   30.04F WCI  26
TRUTH OR CONSE SUNNY     44   9  23 SE5       30.07F
TUCUMCARI      SUNNY     39  17  41 SW15      30.08F WCI  31
$$



USA.gov is the U.S. government's official web portal to all federal, state and local government web resources and services.